Westhampton Beach, NY

9:04 PM EST on January 19, 2018 (GMT -0500)
The Gabreski

Weather History for KFOK - September, 2013

Change the Weather History Date:

Tuesday, September 17, 2013

  Actual Average Record
Temperature  
Mean Temperature 50 °F -  
Max Temperature 62 °F 71 °F 84 °F (2015)
Min Temperature 37 °F 51 °F 37 °F (2000)
Degree Days  
Heating Degree Days 16    
Moisture  
Dew Point 37 °F    
Average Humidity 59    
Maximum Humidity 89    
Minimum Humidity 39    
Precipitation  
Precipitation 0.00 in - - ()
Sea Level Pressure  
Sea Level Pressure 30.36 in    
Wind  
Wind Speed 12 mph (NNE)    
Max Wind Speed 18 mph    
Max Gust Speed 28 mph    
Visibility 10 miles    
Events      
Averages and records for this station are not official NWS values.
T = Trace of Precipitation, MM = Missing Value Source: NWS Daily Summary

Daily Weather History Graph

Daily Weather History Graph

Search for Another Location

Airport or City:

Trip Planner

Search our weather history database for the weather conditions in past years. The results will help you decide how hot, cold, wet, or windy it might be!

Date:

Astronomy

Sep. 17, 2013 Rise Set
Actual Time 6:33 AM EDT 6:55 PM EDT
Civil Twilight 6:05 AM EDT 7:23 PM EDT
Nautical Twilight 5:33 AM EDT 7:55 PM EDT
Astronomical Twilight 5:00 AM EDT 8:28 PM EDT
Moon 5:41 PM EDT (9/17) 4:24 AM EDT (9/17)
Length of Visible Light 13h 17m
Length of Day
12h 22m
Waxing Gibbous, 96% of the Moon is Illuminated
Sep 17
Waxing Gibbous
Sep 19
Full
Sep 26
Last Quarter
Oct 4
New
Oct 11
First Quarter

Hourly Weather History & Observations

Time (EDT) Temp. Dew Point Humidity Pressure Visibility Wind Dir Wind Speed Gust Speed Precip Events Conditions
12:53 AM 54.0 °F 34.0 °F 47% 30.25 in 10.0 mi North 18.4 mph 27.6 mph N/A   Clear
1:53 AM 52.0 °F 36.0 °F 54% 30.27 in 10.0 mi North 18.4 mph 23.0 mph N/A   Clear
2:53 AM 50.0 °F 36.0 °F 59% 30.29 in 10.0 mi North 16.1 mph 24.2 mph N/A   Clear
3:53 AM 48.9 °F 36.0 °F 61% 30.30 in 10.0 mi North 10.4 mph 18.4 mph N/A   Clear
4:53 AM 48.0 °F 37.0 °F 66% 30.32 in 10.0 mi NNE 9.2 mph - N/A   Clear
5:53 AM 46.9 °F 35.1 °F 63% 30.34 in 10.0 mi NNE 12.7 mph 23.0 mph N/A   Clear
6:53 AM 48.0 °F 36.0 °F 63% 30.36 in 10.0 mi NNE 10.4 mph - N/A   Clear
7:53 AM 51.1 °F 37.0 °F 59% 30.39 in 10.0 mi NNE 13.8 mph - N/A   Clear
8:53 AM 54.0 °F 37.0 °F 53% 30.41 in 10.0 mi NNE 15.0 mph 20.7 mph N/A   Clear
9:53 AM 55.0 °F 37.0 °F 51% 30.42 in 10.0 mi NNE 15.0 mph 23.0 mph N/A   Clear
10:53 AM 57.0 °F 37.0 °F 47% 30.43 in 10.0 mi NNE 17.3 mph 23.0 mph N/A   Clear
11:53 AM 57.9 °F 37.9 °F 47% 30.43 in 10.0 mi ENE 10.4 mph 20.7 mph N/A   Clear
12:53 PM 57.9 °F 37.9 °F 47% 30.42 in 10.0 mi ENE 9.2 mph - N/A   Clear
1:53 PM 60.1 °F 37.0 °F 42% 30.40 in 10.0 mi NE 15.0 mph - N/A   Clear
2:53 PM 61.0 °F 37.0 °F 41% 30.39 in 10.0 mi NE 6.9 mph - N/A   Clear
3:53 PM 62.1 °F 37.0 °F 39% 30.38 in 10.0 mi NE 9.2 mph - N/A   Clear
4:53 PM 62.1 °F 37.0 °F 39% 30.37 in 10.0 mi NNE 5.8 mph - N/A   Clear
5:53 PM 61.0 °F 39.0 °F 44% 30.37 in 10.0 mi NNW 4.6 mph - N/A   Clear
6:53 PM 55.0 °F 42.1 °F 62% 30.36 in 10.0 mi Calm Calm - N/A   Clear
7:53 PM 46.9 °F 39.9 °F 77% 30.37 in 10.0 mi Calm Calm - N/A   Clear
8:53 PM 43.0 °F 37.9 °F 82% 30.37 in 10.0 mi Calm Calm - N/A   Clear
9:53 PM 39.9 °F 36.0 °F 86% 30.37 in 10.0 mi Calm Calm - N/A   Clear
10:53 PM 37.9 °F 35.1 °F 89% 30.37 in 10.0 mi Calm Calm - N/A   Clear
11:53 PM 37.0 °F 34.0 °F 89% 30.37 in 10.0 mi Calm Calm - N/A   Clear